Погода в Ватамановской

Россия / Архангельская область     61°33′23″N   38°35′30″E
темп.,
°C
ветер,
м/с
пор.,
м/с
влажн.,
%
обл.,
%
осадки,
мм/ч
давл.,
гПа
погр.,
м
9 марта, вт
вт900:00−25с279895 0.0 1016152
03:00−27с269861 0.0 1018132
06:00−29с289726 0.0 1019202
09:00−27ссв379413 0.0 1021261
12:00−22ссв359035 0.0 1022390
15:00−19с358629 0.0 1023515
18:00−21с239580 0.0 102422
21:00−24ссз239641 0.0 102623
10 марта, ср
ср1000:00−25сз22950 0.0 102719
03:00−25зсз23938 0.0 102759
06:00−21зсз3988100 0.0 1027280
09:00−20сз3795100 0.1 1027299
12:00−16сз359193 0.0 1027345
15:00−12сз359090 0.0 1027386
18:00−15зсз239694 0.0 102764
21:00−18зсз259888 0.0 102899
11 марта, чт
чт1100:00−19зсз239821 0.0 102876
03:00−19зсз239710 0.0 102964
06:00−20зсз23960 0.0 102957
09:00−16з25860 0.0 1028155
12:00−10з25790 0.0 1027377
15:00−8зюз36730 0.0 1026686
18:00−12юз23910 0.0 102342
21:00−13юз311940 0.0 1023328
12 марта, пт
пт1200:00−14юз310932 0.0 1021334
03:00−16юз399427 0.0 1020263
06:00−17ююз39958 0.0 1019205
09:00−14ююз49905 0.0 1018285
12:00−8ю410830 0.0 1017452
15:00−6ю511810 0.0 1015604
18:00−8ю513850 0.0 1014527
21:00−12ю516880 0.0 1014537
13 марта, сб
сб1300:00−11ю5139264 0.0 1013626
03:00−11ю5139182 0.1 1011624
06:00−11ю51390100 0.1 1010697
09:00−9ю61288100 0.1 1009736
12:00−6ю51189100 0.1 1009753
15:00−5ю61188100 0.3 1008761
18:00−6ю51191100 0.1 1008699
21:00−7ю41293100 0.2 1008543